[[{"header":{"parameterUnit":"m.s-1","parameterCategory":1,"la1":30.2991,"la2":30.254,"lo1":-89.0895,"lo2":-89.0444,"dy":0.0017,"dx":0.0017,"nx":28,"ny":28,"refTime":"2025-12-10T09:00:00:Z","depth":0,"parameterNumber":2,"parameterNumberName":"U-component_of_WINDS"},"data":[0,0,0,0,0,0,0,0,0,0,0,0,0,0,0,0,0,0,0,0,0,0,0,0,0,0,0,0,0,0,0,0,0,0,0,0,0,0,0,0,0,0,0,0,0,0,0,0,0,0,0,0,0,0,0,0,0,0,2.5932,2.5932,0,2.585,2.5849,2.5848,2.5772,2.5771,2.577,2.5769,2.5681,2.5679,2.5678,0,0,0,0,0,0,0,0,0,0,0,0,0,2.6021,2.602,2.5932,2.5931,2.593,2.585,2.5849,2.5848,2.5772,2.5771,2.577,2.5768,2.5681,2.5679,2.5678,0,0,0,0,0,0,0,0,0,0,0,0,0,2.5965,2.6019,2.5933,2.5883,2.5878,2.5851,2.5849,2.5848,2.5772,2.5771,2.5769,2.5768,2.5682,2.5679,2.5677,2.5692,0,0,2.5671,2.567,0,0,0,0,0,0,0,0,2.5968,2.5962,2.5891,2.5886,2.588,2.582,2.5848,2.5795,2.5772,2.5812,2.5769,2.5767,2.5728,2.5722,2.5709,2.5687,2.5684,2.567,2.5669,2.5668,2.5667,0,0,0,0,0,0,0,2.5972,2.5965,2.59,2.589,2.5884,2.5864,2.5854,2.5838,2.5779,2.5808,2.5803,2.5794,2.5724,2.5712,2.5707,2.5682,2.567,2.5668,2.5667,2.5666,2.5671,2.5672,0,0,0,0,0,0,2.5984,2.5969,2.5902,2.5897,2.5922,2.5863,2.5853,2.5841,2.5779,2.5768,2.5796,2.5791,2.5716,2.5709,2.5703,2.5718,2.5668,2.5666,2.5665,2.5669,2.5671,2.5673,0,0,0,0,0,0,2.5986,2.5979,2.5906,2.5931,2.5921,2.5863,2.585,2.584,2.5827,2.5769,2.5758,2.5793,2.5715,2.5706,2.5696,2.5714,2.5665,2.5663,2.5667,2.567,2.5672,2.5746,0,0,0,0,0,0,2.5989,2.598,2.5986,2.5932,2.592,2.5901,2.5851,2.5839,2.5824,2.5817,2.5764,2.5754,2.5713,2.57,2.5694,2.571,2.5661,2.5666,2.5668,2.5671,2.5742,2.5751,2.5758,0,0,0,0,0,2.5993,2.6008,2.5986,2.5979,2.5925,2.5902,2.5895,2.5849,2.5825,2.583,2.5793,2.5755,2.5712,2.5699,2.5692,2.5707,2.5664,2.5668,2.5671,2.5738,2.5749,2.5758,0,0,0,0,0,0,2.6063,2.6,2.5975,2.5974,2.5945,2.5889,2.5894,2.5861,2.5836,2.583,2.5773,2.5762,2.5758,2.5731,2.5718,2.5719,2.5683,2.5685,2.5737,2.5747,2.5755,2.5762,2.5659,0,0,0,0,0,2.6079,2.6067,2.6012,2.6016,2.6003,2.5951,2.5939,2.5907,2.5873,2.5859,2.5821,2.5789,2.5768,2.5756,2.5733,2.5737,2.5726,2.5745,2.5753,2.576,2.5762,2.5765,2.5773,2.5683,2.5683,2.5683,0,0,2.6111,2.6075,2.607,2.603,2.6003,2.5991,2.5941,2.5929,2.592,2.5857,2.5846,2.5817,2.5777,2.5775,2.5772,2.5752,2.5785,2.5764,2.577,2.5769,2.5769,2.5778,2.5785,2.5685,2.5685,2.5685,0,0,2.6164,2.6135,2.6137,2.6112,2.6072,2.6038,2.6039,2.5989,2.5968,2.5956,2.5909,2.5896,2.5861,2.5836,2.5818,2.5864,2.5828,2.5857,2.59,2.5903,2.591,2.5916,2.5935,2.5942,2.586,2.586,2.586,0,2.6208,2.619,2.6141,2.6134,2.6118,2.6062,2.6064,2.6041,2.5996,2.5986,2.5965,2.5922,2.589,2.5883,2.5894,2.5881,2.588,2.5864,2.5913,2.5919,2.5924,2.5941,2.5947,2.5864,2.5864,2.5863,2.5863,0,2.6247,2.6235,2.6241,2.6201,2.6185,2.6183,2.6134,2.6124,2.6093,2.6061,2.605,2.6011,2.5982,2.5977,2.5945,2.5965,2.5955,2.5924,2.5887,2.5937,2.5952,2.5958,2.587,2.5869,2.5867,2.5866,0,0,2.6342,2.6277,2.628,2.6263,2.6216,2.6205,2.62,2.6172,2.6165,2.6136,2.6131,2.6104,2.6076,2.6057,2.6022,2.6024,2.6066,2.5994,2.5992,2.601,2.6087,2.6112,2.612,2.6042,2.6043,2.6043,2.6091,0,2.6388,2.6377,2.6334,2.6336,2.6325,2.6272,2.6268,2.6239,2.6209,2.6195,2.6161,2.6144,2.6108,2.6096,2.6096,2.6061,2.6081,2.6056,2.6037,2.6037,2.605,2.6127,2.6152,2.6199,2.6096,2.6097,2.6098,0,2.644,2.6417,2.6419,2.6374,2.6368,2.6365,2.6338,2.6324,2.629,2.6268,2.6248,2.621,2.6202,2.6167,2.6155,2.614,2.6129,2.6111,2.6111,2.6109,2.6072,2.6128,2.6213,2.6221,2.6106,2.6106,2.6105,0,2.6512,2.648,2.6478,2.6464,2.6412,2.6411,2.6389,2.6354,2.6341,2.6316,2.6307,2.6281,2.6268,2.6249,2.6205,2.6183,2.6199,2.616,2.6181,2.6183,2.6188,2.6188,2.6274,2.6178,2.6178,2.6178,2.6178,0,2.6568,2.6572,2.651,2.6508,2.6511,2.6462,2.6465,2.6438,2.6407,2.64,2.6351,2.6345,2.6287,2.6274,2.6239,2.6236,2.623,2.6212,2.6203,2.6218,2.622,2.6211,2.6207,2.618,2.618,2.6179,2.6179,0,2.6649,2.6607,2.6602,2.6553,2.6541,2.6546,2.6504,2.6501,2.6469,2.646,2.6455,2.6404,2.6387,2.6341,2.6311,2.6288,2.6295,2.6277,2.6307,2.6302,2.6327,2.6326,2.641,2.642,2.6318,2.6319,2.6319,0,2.6689,2.669,2.6643,2.6636,2.6617,2.6604,2.6591,2.6543,2.6532,2.6494,2.6496,2.6475,2.6456,2.643,2.6391,2.6368,2.635,2.6381,2.6346,2.6362,2.6353,2.6354,2.6355,2.6389,2.6391,2.6392,2.6393,0,2.6764,2.6744,2.6728,2.6706,2.6693,2.6673,2.6649,2.6645,2.6591,2.6581,2.6563,2.6549,2.652,2.65,2.6471,2.6448,2.6412,2.6404,2.6408,2.6424,2.6442,2.6435,2.633,2.6403,2.6402,2.6401,2.64,2.64,2.6827,2.6827,2.6795,2.6779,2.6757,2.6737,2.6733,2.6701,2.6686,2.666,2.6632,2.6618,2.6586,2.6544,2.6523,2.6512,2.6493,2.6498,2.65,2.6502,2.651,2.6443,2.6506,2.6506,2.6505,2.6505,2.6505,0,2.6902,2.6879,2.6865,2.6836,2.6824,2.6792,2.6765,2.6758,2.6747,2.672,2.6703,2.6684,2.6665,2.6625,2.6603,2.6601,2.6584,2.6597,2.6597,2.6593,2.6527,2.6527,2.6611,2.6611,2.6611,2.6611,2.6611,2.6611,2.6939,2.6939,2.6915,2.6904,2.688,2.6868,2.6856,2.6837,2.6816,2.6798,2.6783,2.6757,2.6725,2.6701,2.6682,2.6671,2.6666,2.6684,2.6668,2.6607,2.6597,2.6588,2.6587,2.6683,2.6683,2.6735,2.6736,2.6736]},{"header":{"parameterUnit":"m.s-1","parameterCategory":1,"la1":30.2991,"la2":30.254,"lo1":-89.0895,"lo2":-89.0444,"dy":0.0017,"dx":0.0017,"nx":28,"ny":28,"refTime":"2025-12-10T09:00:00:Z","depth":0,"parameterNumber":3,"parameterNumberName":"V-component_of_WINDS"},"data":[0,0,0,0,0,0,0,0,0,0,0,0,0,0,0,0,0,0,0,0,0,0,0,0,0,0,0,0,0,0,0,0,0,0,0,0,0,0,0,0,0,0,0,0,0,0,0,0,0,0,0,0,0,0,0,0,0,0,-0.4005,-0.4005,0,-0.4007,-0.4007,-0.4007,-0.3952,-0.395,-0.3949,-0.3947,-0.3951,-0.3952,-0.3954,0,0,0,0,0,0,0,0,0,0,0,0,0,-0.3957,-0.3958,-0.4005,-0.4005,-0.4005,-0.4007,-0.4007,-0.4007,-0.3952,-0.395,-0.3948,-0.3947,-0.3951,-0.3952,-0.3954,0,0,0,0,0,0,0,0,0,0,0,0,0,-0.397,-0.3958,-0.4005,-0.3978,-0.3976,-0.4007,-0.4007,-0.4007,-0.3952,-0.395,-0.3948,-0.3946,-0.395,-0.3952,-0.3954,-0.4012,0,0,-0.3961,-0.3962,0,0,0,0,0,0,0,0,-0.3969,-0.3972,-0.3982,-0.398,-0.3977,-0.3977,-0.3991,-0.4009,-0.3953,-0.3961,-0.3947,-0.3945,-0.3962,-0.3963,-0.3968,-0.4013,-0.4013,-0.3961,-0.3963,-0.3964,-0.3964,0,0,0,0,0,0,0,-0.3969,-0.3972,-0.4006,-0.3982,-0.3979,-0.3966,-0.3966,-0.3994,-0.3974,-0.396,-0.3956,-0.3957,-0.396,-0.3966,-0.3968,-0.4013,-0.3961,-0.3963,-0.3964,-0.3965,-0.4106,-0.4109,0,0,0,0,0,0,-0.3971,-0.3971,-0.4006,-0.4006,-0.3968,-0.3969,-0.3969,-0.3979,-0.3973,-0.397,-0.3959,-0.3955,-0.3963,-0.3965,-0.3968,-0.4036,-0.3963,-0.3966,-0.3967,-0.4104,-0.4107,-0.411,0,0,0,0,0,0,-0.397,-0.3975,-0.4006,-0.3988,-0.3991,-0.3972,-0.3985,-0.3981,-0.3986,-0.3972,-0.3969,-0.3969,-0.3962,-0.3964,-0.4002,-0.4035,-0.3967,-0.3969,-0.4101,-0.4105,-0.4108,-0.4173,0,0,0,0,0,0,-0.3969,-0.3975,-0.3996,-0.3988,-0.3992,-0.404,-0.3987,-0.3982,-0.399,-0.3984,-0.3981,-0.3978,-0.396,-0.3999,-0.4004,-0.4037,-0.397,-0.4098,-0.4103,-0.4107,-0.4168,-0.4179,-0.4188,0,0,0,0,0,-0.3967,-0.4014,-0.3997,-0.4002,-0.4018,-0.4042,-0.4044,-0.4022,-0.3993,-0.4015,-0.4006,-0.3978,-0.4031,-0.4003,-0.4008,-0.4043,-0.4096,-0.4102,-0.4107,-0.4164,-0.4177,-0.4187,0,0,0,0,0,0,-0.4027,-0.4013,-0.3994,-0.404,-0.4042,-0.4032,-0.4059,-0.4036,-0.4047,-0.4041,-0.4014,-0.4013,-0.4056,-0.4053,-0.4022,-0.4099,-0.4058,-0.4065,-0.41,-0.4112,-0.4122,-0.4122,-0.3972,0,0,0,0,0,-0.4045,-0.4065,-0.4052,-0.4094,-0.4096,-0.4078,-0.4087,-0.407,-0.4072,-0.4073,-0.4066,-0.407,-0.4087,-0.4099,-0.4114,-0.4167,-0.4166,-0.4193,-0.4203,-0.4211,-0.4218,-0.4247,-0.4259,-0.4128,-0.4127,-0.4127,0,0,-0.4083,-0.4078,-0.4092,-0.4105,-0.4105,-0.4128,-0.4079,-0.4104,-0.412,-0.4077,-0.4112,-0.4107,-0.4109,-0.4155,-0.4175,-0.4154,-0.4254,-0.4218,-0.4225,-0.4227,-0.4254,-0.4266,-0.4277,-0.4131,-0.4131,-0.413,0,0,-0.4164,-0.4162,-0.4197,-0.4198,-0.4199,-0.4186,-0.4195,-0.4189,-0.4184,-0.4219,-0.4187,-0.4206,-0.4236,-0.4239,-0.4245,-0.4328,-0.4303,-0.4334,-0.4385,-0.4414,-0.4424,-0.4433,-0.4464,-0.4475,-0.434,-0.434,-0.434,0,-0.4212,-0.4243,-0.4218,-0.4246,-0.4253,-0.4214,-0.425,-0.4252,-0.4258,-0.4264,-0.424,-0.4278,-0.4277,-0.4323,-0.4344,-0.4349,-0.4359,-0.4334,-0.4425,-0.4434,-0.4442,-0.4471,-0.4482,-0.4344,-0.4344,-0.4343,-0.4343,0,-0.4302,-0.4325,-0.4353,-0.4359,-0.437,-0.4401,-0.4382,-0.4395,-0.4377,-0.4368,-0.4404,-0.4401,-0.4415,-0.4425,-0.4408,-0.4469,-0.4456,-0.4429,-0.4388,-0.4458,-0.4485,-0.4496,-0.4349,-0.4348,-0.4347,-0.4346,0,0,-0.4421,-0.4413,-0.4424,-0.4427,-0.4425,-0.4442,-0.4473,-0.4486,-0.4499,-0.4504,-0.453,-0.4557,-0.4532,-0.4538,-0.4521,-0.4546,-0.4613,-0.4515,-0.4515,-0.4535,-0.4682,-0.4703,-0.4717,-0.4596,-0.4598,-0.46,-0.4682,0,-0.45,-0.4551,-0.453,-0.4583,-0.4604,-0.4568,-0.4594,-0.4596,-0.4588,-0.4606,-0.4597,-0.4617,-0.4581,-0.4585,-0.4608,-0.46,-0.4643,-0.4594,-0.4621,-0.4622,-0.4622,-0.473,-0.4753,-0.4831,-0.4693,-0.4694,-0.4696,0,-0.46,-0.4609,-0.4665,-0.466,-0.4668,-0.4692,-0.4704,-0.472,-0.4722,-0.4715,-0.4722,-0.47,-0.473,-0.4688,-0.473,-0.4698,-0.4707,-0.4705,-0.4708,-0.471,-0.4664,-0.4737,-0.4855,-0.4867,-0.4712,-0.471,-0.4709,0,-0.4682,-0.4709,-0.4746,-0.4749,-0.4744,-0.4762,-0.4761,-0.4761,-0.4771,-0.4781,-0.4787,-0.4801,-0.4809,-0.482,-0.4802,-0.4773,-0.4847,-0.4804,-0.4843,-0.4843,-0.4861,-0.486,-0.4983,-0.4866,-0.4865,-0.4865,-0.4865,0,-0.4774,-0.4809,-0.4783,-0.4805,-0.4845,-0.482,-0.4859,-0.4854,-0.4855,-0.4877,-0.4846,-0.4867,-0.4842,-0.4861,-0.4847,-0.4885,-0.4888,-0.4884,-0.488,-0.4887,-0.4888,-0.4894,-0.4888,-0.4868,-0.4867,-0.4867,-0.4866,0,-0.4872,-0.4856,-0.4894,-0.4886,-0.4885,-0.4914,-0.4908,-0.493,-0.4919,-0.4947,-0.4953,-0.4937,-0.4958,-0.4941,-0.4962,-0.4952,-0.5002,-0.499,-0.5002,-0.4999,-0.5039,-0.5036,-0.5171,-0.5188,-0.5059,-0.506,-0.5061,0,-0.4932,-0.4959,-0.4954,-0.4966,-0.4967,-0.4987,-0.4997,-0.4974,-0.4986,-0.4991,-0.5012,-0.503,-0.5044,-0.5079,-0.507,-0.5086,-0.5075,-0.5121,-0.5077,-0.5084,-0.5077,-0.5076,-0.5079,-0.513,-0.5132,-0.5133,-0.5134,0,-0.5041,-0.5032,-0.5047,-0.506,-0.5073,-0.5082,-0.5088,-0.51,-0.5077,-0.5092,-0.5113,-0.5123,-0.5144,-0.5163,-0.5176,-0.5175,-0.5152,-0.5148,-0.5158,-0.5166,-0.5172,-0.5171,-0.5027,-0.5145,-0.5144,-0.5143,-0.5142,-0.5142,-0.5123,-0.5145,-0.5146,-0.5164,-0.5167,-0.5174,-0.5194,-0.5186,-0.5203,-0.5218,-0.5204,-0.5229,-0.5232,-0.5246,-0.5249,-0.5269,-0.525,-0.5264,-0.5268,-0.5272,-0.5279,-0.5168,-0.5271,-0.5271,-0.527,-0.527,-0.527,0,-0.5231,-0.5229,-0.5246,-0.5257,-0.5272,-0.5247,-0.5253,-0.5268,-0.5291,-0.5295,-0.5309,-0.5333,-0.5352,-0.5344,-0.5361,-0.5378,-0.5368,-0.5384,-0.5383,-0.5383,-0.5294,-0.5284,-0.5392,-0.5392,-0.5392,-0.5392,-0.5392,-0.5392,-0.5289,-0.5326,-0.5317,-0.5355,-0.5353,-0.5378,-0.5384,-0.5391,-0.5394,-0.5423,-0.5438,-0.5433,-0.5432,-0.5449,-0.5465,-0.5462,-0.547,-0.549,-0.5484,-0.5401,-0.5389,-0.5378,-0.5368,-0.5492,-0.5492,-0.5571,-0.5572,-0.5572]}]]